User: anonymous   Login
Location: Vallejo Observatory
(38.1221°N, 122.2109°W)
Time: 06:19:18
(UTC-07:00)
Language:

MOS 1 Rocket - Orbit

View from above orbital plane
View from above orbital plane
View from above satellite
View from above satellite

Ground track
Ground track

The orbit data is extracted from the following two-line orbital elements,

1 17528U 87018B   15185.73652181  .00000311  00000-0  77724-4 0  9996
2 17528 097.4147 215.8278 0153283 015.2028 106.8572 14.50455154496440
Epoch (UTC): 04 July 2015 17:40:35
Eccentricity: 0.0153283
inclination: 97.4147°
perigee height: 615 km
apogee height: 833 km
right ascension of ascending node: 215.8278°
argument of perigee: 15.2028°
revolutions per day: 14.50455154
mean anomaly at epoch: 106.8572°
orbit number at epoch: 49644

The dashed part of the orbit path shows where the satellite is in the earth's shadow,  

DLR